TIANMU-1 04
Last updated on Mon Jun 22 2026 00:02:46 GMT+0000 (Coordinated Universal Time)
1 55974U 23039B 26172.50017186 .00013293 00000+0 25608-3 0 9994
2 55974 97.5177 345.7923 0004718 83.9821 276.1966 15.47992980181519
Next 0 passes for location: London (51.5072 / 0.1276)
No passes found over London.